DW6352 Weather Reports


time (UTC)temp
F
wind
direction
speed
knots
gust
knots
rain 1hr
in
rain 24hr
in
rain mn
in
humidity
%
barometer
mb
20260508114558 32 175 1.7 3.5 0.00 0.00 0.00 83 1007.2
20260508113054 31 257 1.7 3.5 0.00 0.00 0.00 81 1007.1
20260508111555 31 180 2.6 4.3 0.00 0.00 0.00 80 1007.2
20260508110050 31 173 1.7 2.6 0.00 0.00 0.00 79 1007.2
20260508104547 32 173 0.9 1.7 0.00 0.00 0.00 79 1007.2
20260508103047 32 173 0.9 2.6 0.00 0.00 0.00 79 1007.3
20260508101546 32 173 1.7 2.6 0.00 0.00 0.00 78 1007.4
20260508100044 32 173 1.7 2.6 0.00 0.00 0.00 77 1007.4
20260508094545 33 173 0.9 1.7 0.00 0.00 0.00 77 1007.5
20260508093037 33 173 0.0 0.0 0.00 0.00 0.00 77 1007.5
20260508091535 33 173 1.7 2.6 0.00 0.00 0.00 77 1007.6
20260508090036 34 173 0.9 2.6 0.00 0.00 0.00 77 1007.6
20260508084532 34 173 0.9 1.7 0.00 0.00 0.00 77 1007.6
20260508083029 34 175 0.9 2.6 0.00 0.00 0.00 77 1007.6
20260508081533 34 175 0.9 3.5 0.00 0.00 0.00 76 1007.7
20260508080027 34 360 2.6 3.5 0.00 0.00 0.00 75 1007.5
20260508074526 35 360 0.0 0.0 0.00 0.00 0.00 75 1007.5
20260508073024 35 360 0.0 1.7 0.00 0.00 0.00 75 1007.6
20260508071528 35 360 0.9 2.6 0.00 0.00 0.00 76 1007.8
20260508070022 35 360 0.9 3.5 0.00 0.00 0.00 76 1007.8
20260508064521 35 192 0.9 2.6 0.00 0.00 0.00 75 1007.8
20260508063019 35 192 0.9 2.6 0.00 0.00 0.00 73 1007.9
20260508061522 35 192 0.9 1.7 0.00 0.00 0.00 72 1008.0
20260508060014 35 192 1.7 2.6 0.00 0.00 0.00 71 1008.1
20260508054513 35 192 0.9 2.6 0.00 0.00 0.00 70 1008.1
20260508053010 36 192 1.7 2.6 0.00 0.00 0.00 69 1008.1
20260508051520 36 192 1.7 2.6 0.00 0.00 0.00 68 1008.2
20260508050009 37 192 0.9 2.6 0.00 0.00 0.00 67 1008.1
20260508044505 37 192 0.9 2.6 0.00 0.00 0.00 67 1008.2
20260508043004 38 187 1.7 2.6 0.00 0.00 0.00 65 1008.3
20260508041504 39 187 1.7 2.6 0.00 0.00 0.00 63 1008.4
20260508040008 39 187 1.7 3.5 0.00 0.00 0.00 62 1008.4
20260508034505 40 274 1.7 3.5 0.00 0.00 0.00 59 1008.5
20260508033005 41 275 1.7 2.6 0.00 0.00 0.00 56 1008.6
20260508031502 41 275 1.7 2.6 0.00 0.00 0.00 55 1008.6
20260508030002 42 275 0.9 1.7 0.00 0.00 0.00 53 1008.6
20260508024501 44 275 0.9 1.7 0.00 0.00 0.00 51 1008.6
20260508023101 45 275 0.9 1.7 0.00 0.00 0.00 49 1008.5
20260508021601 47 275 0.0 0.0 0.00 0.00 0.00 45 1008.5
20260508014600 51 275 0.0 2.6 0.00 0.00 0.00 37 1008.2
20260508013059 53 275 0.0 3.5 0.00 0.00 0.00 33 1008.3
20260508011607 54 271 1.7 3.5 0.00 0.00 0.00 31 1008.2
20260508010058 54 264 0.9 6.1 0.00 0.00 0.00 30 1008.1
20260508004600 55 257 2.6 8.7 0.00 0.00 0.00 30 1008.2
20260508003059 55 268 2.6 10.4 0.00 0.00 0.00 29 1008.3
20260508001558 55 190 2.6 8.7 0.00 0.00 0.00 30 1008.3
20260508000055 56 300 3.5 7.8 0.00 0.00 0.00 29 1008.4
20260507234602 56 169 3.5 8.7 0.00 0.00 0.00 31 1008.4
20260507233054 55 242 2.6 10.4 0.00 0.00 0.00 30 1008.5
20260507231557 56 279 7.0 10.4 0.00 0.00 0.00 28 1008.6
20260507230057 55 267 6.1 13.0 0.00 0.00 0.00 29 1008.7
20260507224552 57 227 7.0 13.0 0.00 0.00 0.00 28 1008.8
20260507223056 56 272 5.2 13.0 0.00 0.00 0.00 29 1008.8
20260507221550 55 261 7.8 14.8 0.00 0.00 0.00 29 1008.9
20260507220050 56 260 6.1 15.6 0.00 0.00 0.00 28 1009.1
20260507214547 56 270 4.3 11.3 0.00 0.00 0.00 27 1009.0
20260507213046 55 314 6.1 13.9 0.00 0.00 0.00 27 1009.0
20260507211545 57 264 11.3 18.2 0.00 0.00 0.00 29 1009.2
20260507210043 56 275 6.1 13.9 0.00 0.00 0.00 29 1009.2
20260507204542 54 252 8.7 15.6 0.00 0.00 0.00 28 1009.3
20260507203048 56 240 4.3 13.9 0.00 0.00 0.00 32 1009.6
20260507201540 55 274 4.3 20.0 0.00 0.00 0.00 30 1009.9
20260507200046 55 224 6.1 15.6 0.00 0.00 0.00 31 1010.0
20260507194534 53 321 6.1 18.2 0.00 0.00 0.00 30 1010.3
20260507193035 53 259 6.1 10.4 0.00 0.00 0.00 30 1010.3
20260507191532 53 226 6.1 16.5 0.00 0.00 0.00 31 1010.5
20260507190033 54 235 6.1 10.4 0.00 0.00 0.00 30 1010.5
20260507184530 53 315 6.1 13.0 0.00 0.00 0.00 33 1010.5
20260507183036 52 222 7.8 14.8 0.00 0.00 0.00 31 1010.8
20260507181526 52 282 6.1 15.6 0.00 0.00 0.00 34 1011.0
20260507180035 51 271 5.2 10.4 0.00 0.00 0.00 34 1011.1
20260507174528 51 297 4.3 13.0 0.00 0.00 0.00 37 1011.3
20260507173019 50 333 6.1 12.2 0.00 0.00 0.00 35 1011.6
20260507171517 50 328 5.2 13.9 0.00 0.00 0.00 34 1011.7
20260507170018 50 314 3.5 13.9 0.00 0.00 0.00 34 1011.7
20260507164514 49 165 7.8 13.9 0.00 0.00 0.00 33 1011.9
20260507163011 50 262 6.1 10.4 0.00 0.00 0.00 38 1012.0
20260507161508 49 317 0.9 11.3 0.00 0.00 0.00 36 1012.2
20260507160005 48 191 4.3 9.6 0.00 0.00 0.00 39 1012.3
20260507154502 48 178 0.0 7.8 0.00 0.00 0.00 41 1012.3
20260507153059 47 259 3.5 9.6 0.00 0.00 0.00 39 1012.4
20260507151556 47 42 2.6 7.8 0.00 0.00 0.00 42 1012.3
20260507150052 46 304 0.9 7.8 0.00 0.00 0.00 44 1012.4
20260507144547 46 284 1.7 7.0 0.00 0.00 0.00 43 1012.5
20260507143046 45 313 2.6 8.7 0.00 0.00 0.00 45 1012.7
20260507141540 44 282 1.7 6.1 0.00 0.00 0.00 45 1012.7
20260507140034 44 296 2.6 7.0 0.00 0.00 0.00 48 1012.8
20260507134539 43 241 1.7 7.0 0.00 0.00 0.00 51 1012.9
20260507133027 42 271 2.6 6.1 0.00 0.00 0.00 54 1012.9
20260507131531 41 306 1.7 9.6 0.00 0.00 0.00 57 1012.9
20260507130019 40 264 2.6 5.2 0.00 0.00 0.00 60 1012.9
20260507124515 39 215 2.6 6.1 0.00 0.00 0.00 63 1013.0
20260507123018 38 5 0.9 3.5 0.00 0.00 0.00 67 1013.0
20260507121506 37 174 1.7 3.5 0.00 0.00 0.00 69 1013.0
20260507120006 36 225 0.9 2.6 0.00 0.00 0.00 71 1013.0